[[{"header":{"parameterUnit":"m.s-1","parameterCategory":1,"la1":30.2991,"la2":30.254,"lo1":-89.0895,"lo2":-89.0444,"dy":0.0017,"dx":0.0017,"nx":28,"ny":28,"refTime":"2023-09-16T03:00:00:Z","depth":0,"parameterNumber":2,"parameterNumberName":"U-component_of_WINDS"},"data":[0,0,0,0,0,0,0,0,0,0,0,0,0,0,0,0,0,0,0,0,0,0,0,0,0,0,0,0,0,0,0,0,0,0,0,0,0,0,0,0,0,0,0,0,0,0,0,0,0,0,0,0,0,0,0,0,0,0,1.6395,1.6396,0,1.6489,1.649,1.6491,1.6476,1.6474,1.6472,1.6471,1.6572,1.6576,1.658,0,0,0,0,0,0,0,0,0,0,0,0,0,1.6204,1.6207,1.6395,1.6396,1.6397,1.6489,1.649,1.6492,1.6476,1.6474,1.6472,1.647,1.6571,1.6576,1.6581,0,0,0,0,0,0,0,0,0,0,0,0,0,1.6291,1.6208,1.6394,1.64,1.6401,1.6489,1.649,1.6492,1.6476,1.6474,1.6471,1.6469,1.6569,1.6575,1.6581,1.6671,0,0,1.6601,1.6604,0,0,0,0,0,0,0,0,1.6286,1.6298,1.6398,1.64,1.6402,1.6468,1.646,1.6552,1.6477,1.6448,1.6471,1.6468,1.654,1.6548,1.6572,1.6675,1.668,1.6602,1.6605,1.6608,1.661,0,0,0,0,0,0,0,1.628,1.6294,1.6432,1.6399,1.6402,1.6399,1.6409,1.6478,1.6507,1.645,1.6449,1.6461,1.654,1.6566,1.6574,1.6681,1.6601,1.6607,1.6611,1.6613,1.6864,1.6867,0,0,0,0,0,0,1.6272,1.6289,1.6429,1.6435,1.6337,1.6404,1.6415,1.6449,1.6506,1.6512,1.6463,1.646,1.6556,1.6567,1.6578,1.6687,1.6608,1.6614,1.6618,1.6861,1.6865,1.6868,0,0,0,0,0,0,1.6268,1.6285,1.6425,1.6362,1.638,1.641,1.6449,1.6452,1.6478,1.6515,1.6521,1.6483,1.6554,1.6569,1.6648,1.669,1.6617,1.6623,1.6858,1.6862,1.6866,1.6906,0,0,0,0,0,0,1.6263,1.6283,1.6317,1.6363,1.6383,1.6493,1.6451,1.6456,1.6488,1.6485,1.6536,1.6542,1.6554,1.6638,1.6654,1.6698,1.6628,1.6854,1.686,1.6865,1.6901,1.6911,1.692,0,0,0,0,0,1.6256,1.6325,1.6318,1.6335,1.6425,1.6495,1.6507,1.6518,1.6492,1.6526,1.655,1.654,1.6682,1.6646,1.6664,1.671,1.6852,1.6858,1.6865,1.6897,1.6909,1.692,0,0,0,0,0,0,1.6285,1.6331,1.6325,1.641,1.6449,1.6492,1.6537,1.653,1.6578,1.6574,1.6586,1.6598,1.6678,1.6702,1.6661,1.68,1.6764,1.6774,1.6782,1.6794,1.6803,1.6797,1.6633,0,0,0,0,0,1.6301,1.6352,1.639,1.6463,1.6482,1.6506,1.6537,1.6541,1.6583,1.6599,1.6629,1.6671,1.6725,1.676,1.6812,1.6903,1.6916,1.6944,1.6953,1.6961,1.6971,1.7022,1.7036,1.6889,1.6889,1.6889,0,0,1.6335,1.6367,1.6399,1.6469,1.65,1.6555,1.652,1.6579,1.6621,1.6609,1.6686,1.6709,1.6756,1.6842,1.6881,1.6864,1.7013,1.6969,1.6975,1.698,1.703,1.7044,1.7057,1.6893,1.6892,1.6892,0,0,1.6426,1.6454,1.6518,1.6549,1.6595,1.661,1.6625,1.667,1.6684,1.6761,1.6754,1.6803,1.6896,1.693,1.696,1.7063,1.7056,1.7079,1.7129,1.7179,1.7191,1.7201,1.7241,1.7254,1.7088,1.7088,1.7088,0,1.6464,1.6545,1.6552,1.6612,1.6644,1.6634,1.67,1.6729,1.6791,1.6814,1.6792,1.6909,1.694,1.7034,1.7059,1.7083,1.7102,1.7075,1.7188,1.7199,1.7209,1.7246,1.7261,1.7091,1.709,1.709,1.709,0,1.659,1.6647,1.6693,1.6751,1.6787,1.685,1.6868,1.6904,1.6905,1.6923,1.7002,1.7038,1.7097,1.7119,1.7122,1.7215,1.7203,1.7185,1.7149,1.7225,1.7261,1.7275,1.7095,1.7094,1.7093,1.7092,0,0,1.6706,1.6765,1.6782,1.6809,1.6858,1.6902,1.6964,1.7021,1.7053,1.7095,1.7149,1.7227,1.7211,1.7244,1.725,1.7293,1.7376,1.727,1.7272,1.7291,1.7483,1.7499,1.7515,1.737,1.7373,1.7375,1.748,0,1.6804,1.6913,1.692,1.7019,1.7073,1.7063,1.7117,1.7154,1.7172,1.722,1.724,1.7296,1.7269,1.729,1.7332,1.7356,1.7415,1.7348,1.7423,1.7426,1.7415,1.7533,1.755,1.7648,1.7494,1.7496,1.7498,0,1.6934,1.6978,1.7082,1.7124,1.7147,1.7195,1.7248,1.7294,1.7336,1.7346,1.7382,1.7382,1.7447,1.7406,1.7498,1.7453,1.7484,1.75,1.7504,1.7514,1.7469,1.755,1.7679,1.7695,1.7519,1.7518,1.7516,0,1.7011,1.7096,1.717,1.7193,1.7242,1.7277,1.73,1.7339,1.7373,1.7419,1.7441,1.7494,1.7525,1.7567,1.7582,1.755,1.7674,1.7633,1.7686,1.7686,1.7716,1.7715,1.7856,1.773,1.773,1.773,1.7729,0,1.7122,1.7187,1.7205,1.7251,1.7324,1.7331,1.7404,1.7424,1.7459,1.751,1.7504,1.7552,1.7566,1.7618,1.7629,1.7705,1.7718,1.773,1.7733,1.7732,1.7731,1.7755,1.775,1.7733,1.7733,1.7732,1.7731,0,1.7222,1.7237,1.7317,1.7356,1.7368,1.742,1.7455,1.75,1.7515,1.758,1.7595,1.7621,1.7681,1.7698,1.777,1.7778,1.7868,1.7863,1.7854,1.7855,1.7908,1.7904,1.8073,1.8096,1.7952,1.7953,1.7954,0,1.7294,1.7343,1.7388,1.742,1.7444,1.7497,1.7531,1.7539,1.7575,1.7626,1.7665,1.7723,1.7771,1.7868,1.7894,1.7949,1.7948,1.8003,1.7957,1.7955,1.7953,1.7951,1.7957,1.8013,1.8014,1.8016,1.8017,0,1.7421,1.7425,1.7473,1.7524,1.7564,1.7605,1.7644,1.7672,1.7686,1.7727,1.7787,1.7824,1.7896,1.7956,1.8011,1.8036,1.8031,1.803,1.8046,1.8048,1.8042,1.8049,1.7882,1.8027,1.8026,1.8026,1.8025,1.8025,1.7512,1.7556,1.7593,1.7647,1.7677,1.7714,1.7758,1.7778,1.7828,1.7887,1.7889,1.7955,1.7995,1.807,1.8097,1.815,1.8135,1.8157,1.8163,1.8169,1.8175,1.803,1.816,1.816,1.8159,1.8159,1.8159,0,1.7641,1.7664,1.7713,1.7768,1.781,1.7797,1.7839,1.7877,1.7934,1.7971,1.8018,1.8087,1.8144,1.8174,1.8231,1.8268,1.8267,1.8283,1.8283,1.8289,1.8184,1.8167,1.8283,1.8283,1.8283,1.8283,1.8283,1.8283,1.7714,1.7788,1.7797,1.7886,1.7909,1.7972,1.7998,1.8032,1.8062,1.8139,1.8186,1.8204,1.8239,1.8298,1.835,1.8357,1.838,1.8399,1.8406,1.8308,1.8296,1.8284,1.8267,1.8403,1.8403,1.8506,1.8507,1.8508]},{"header":{"parameterUnit":"m.s-1","parameterCategory":1,"la1":30.2991,"la2":30.254,"lo1":-89.0895,"lo2":-89.0444,"dy":0.0017,"dx":0.0017,"nx":28,"ny":28,"refTime":"2023-09-16T03:00:00:Z","depth":0,"parameterNumber":3,"parameterNumberName":"V-component_of_WINDS"},"data":[0,0,0,0,0,0,0,0,0,0,0,0,0,0,0,0,0,0,0,0,0,0,0,0,0,0,0,0,0,0,0,0,0,0,0,0,0,0,0,0,0,0,0,0,0,0,0,0,0,0,0,0,0,0,0,0,0,0,-0.9416,-0.9413,0,-0.9173,-0.917,-0.9167,-0.9057,-0.9057,-0.9057,-0.9057,-0.8801,-0.8794,-0.8787,0,0,0,0,0,0,0,0,0,0,0,0,0,-0.9779,-0.9773,-0.9416,-0.9413,-0.941,-0.9173,-0.917,-0.9166,-0.9057,-0.9057,-0.9057,-0.9058,-0.8803,-0.8795,-0.8786,0,0,0,0,0,0,0,0,0,0,0,0,0,-0.9587,-0.9771,-0.9417,-0.9327,-0.9317,-0.9174,-0.917,-0.9165,-0.9057,-0.9057,-0.9057,-0.9058,-0.8806,-0.8796,-0.8785,-0.8711,0,0,-0.8753,-0.8748,0,0,0,0,0,0,0,0,-0.9598,-0.9574,-0.9343,-0.9333,-0.9321,-0.9146,-0.9203,-0.9013,-0.9056,-0.9155,-0.9057,-0.9058,-0.8915,-0.8895,-0.8848,-0.8699,-0.8688,-0.8752,-0.8745,-0.8741,-0.8738,0,0,0,0,0,0,0,-0.9611,-0.9584,-0.932,-0.934,-0.9326,-0.9296,-0.927,-0.9167,-0.9035,-0.9146,-0.9138,-0.9111,-0.8909,-0.8859,-0.8842,-0.8684,-0.8752,-0.8743,-0.8736,-0.8732,-0.8461,-0.8461,0,0,0,0,0,0,-0.964,-0.9595,-0.9327,-0.9312,-0.9464,-0.929,-0.926,-0.9201,-0.9036,-0.9012,-0.9111,-0.9107,-0.8877,-0.8854,-0.8832,-0.8734,-0.8741,-0.8731,-0.8725,-0.8462,-0.8461,-0.846,0,0,0,0,0,0,-0.9649,-0.9618,-0.9337,-0.9451,-0.9413,-0.9283,-0.9218,-0.9196,-0.9146,-0.9009,-0.8985,-0.9085,-0.8876,-0.8847,-0.8742,-0.8723,-0.8726,-0.8716,-0.8463,-0.8462,-0.8461,-0.8538,0,0,0,0,0,0,-0.966,-0.9621,-0.9593,-0.9452,-0.9408,-0.9254,-0.9217,-0.9191,-0.9129,-0.9122,-0.8978,-0.8955,-0.8874,-0.8759,-0.8732,-0.8709,-0.8708,-0.8464,-0.8463,-0.8461,-0.8536,-0.8539,-0.8542,0,0,0,0,0,-0.9673,-0.9623,-0.9593,-0.9561,-0.9371,-0.9253,-0.9227,-0.9138,-0.9128,-0.9098,-0.901,-0.8959,-0.8731,-0.8749,-0.8718,-0.8691,-0.8465,-0.8463,-0.8461,-0.8535,-0.8539,-0.8542,0,0,0,0,0,0,-0.9763,-0.9603,-0.9567,-0.9471,-0.9377,-0.9235,-0.9194,-0.9145,-0.905,-0.9046,-0.8937,-0.8906,-0.881,-0.874,-0.8764,-0.8611,-0.8593,-0.8585,-0.866,-0.8662,-0.8665,-0.8683,-0.8699,0,0,0,0,0,-0.9772,-0.9693,-0.9556,-0.9484,-0.9439,-0.9325,-0.927,-0.921,-0.9107,-0.9066,-0.897,-0.887,-0.8775,-0.8715,-0.862,-0.8526,-0.8492,-0.8492,-0.8495,-0.8498,-0.8492,-0.8436,-0.8434,-0.8454,-0.8454,-0.8454,0,0,-0.9789,-0.9692,-0.9648,-0.95,-0.9419,-0.9337,-0.9292,-0.9206,-0.9143,-0.9052,-0.8947,-0.8874,-0.8755,-0.8656,-0.8607,-0.8594,-0.8479,-0.8496,-0.85,-0.8491,-0.8434,-0.8432,-0.8431,-0.8453,-0.8453,-0.8454,0,0,-0.9778,-0.9698,-0.9628,-0.955,-0.943,-0.9355,-0.9339,-0.9204,-0.9152,-0.9047,-0.8976,-0.8899,-0.8739,-0.8657,-0.8594,-0.8554,-0.8503,-0.8526,-0.854,-0.8487,-0.8485,-0.8483,-0.8467,-0.8463,-0.852,-0.852,-0.8521,0,-0.9813,-0.9689,-0.9598,-0.9517,-0.9453,-0.937,-0.9298,-0.9225,-0.908,-0.9037,-0.9025,-0.8823,-0.8737,-0.8616,-0.8607,-0.856,-0.8536,-0.8541,-0.8493,-0.849,-0.8487,-0.8471,-0.8465,-0.8524,-0.8523,-0.8523,-0.8523,0,-0.9738,-0.9652,-0.961,-0.9476,-0.9407,-0.9331,-0.9227,-0.9168,-0.9114,-0.9039,-0.8932,-0.8827,-0.8709,-0.8676,-0.8622,-0.8548,-0.8544,-0.8515,-0.8494,-0.849,-0.8473,-0.8466,-0.8529,-0.8528,-0.8527,-0.8526,0,0,-0.9775,-0.9592,-0.9578,-0.9516,-0.9378,-0.9309,-0.9229,-0.9116,-0.9067,-0.897,-0.8899,-0.8766,-0.8738,-0.8667,-0.8603,-0.8556,-0.853,-0.8532,-0.8527,-0.8534,-0.8441,-0.8463,-0.8458,-0.8497,-0.8495,-0.8494,-0.845,0,-0.9744,-0.9598,-0.9515,-0.9403,-0.9322,-0.9242,-0.9172,-0.9079,-0.9007,-0.8926,-0.8846,-0.8753,-0.8724,-0.8681,-0.8632,-0.8544,-0.8509,-0.8546,-0.8426,-0.8423,-0.8458,-0.8449,-0.8471,-0.8436,-0.8443,-0.8442,-0.8441,0,-0.9687,-0.9595,-0.9476,-0.9348,-0.9311,-0.925,-0.914,-0.9064,-0.8957,-0.8908,-0.883,-0.8766,-0.8676,-0.8665,-0.8538,-0.8565,-0.8511,-0.8461,-0.8457,-0.8441,-0.8431,-0.8431,-0.8422,-0.8416,-0.843,-0.8431,-0.8432,0,-0.9725,-0.9571,-0.9479,-0.9428,-0.9277,-0.9236,-0.917,-0.9063,-0.9001,-0.8905,-0.8863,-0.8757,-0.8698,-0.8616,-0.8525,-0.8525,-0.8407,-0.8388,-0.8362,-0.8364,-0.8339,-0.8341,-0.832,-0.8308,-0.8308,-0.8308,-0.8308,0,-0.9698,-0.9628,-0.9494,-0.9438,-0.9357,-0.9261,-0.9182,-0.911,-0.9016,-0.8942,-0.8866,-0.8798,-0.8683,-0.86,-0.8528,-0.8433,-0.8407,-0.8364,-0.8345,-0.837,-0.8375,-0.8332,-0.8331,-0.8306,-0.8307,-0.8307,-0.8307,0,-0.9726,-0.9634,-0.9529,-0.9395,-0.936,-0.9306,-0.919,-0.9131,-0.9057,-0.8965,-0.8937,-0.8819,-0.8718,-0.862,-0.8483,-0.8435,-0.8341,-0.8316,-0.8378,-0.8367,-0.8346,-0.8349,-0.8294,-0.8281,-0.828,-0.828,-0.828,0,-0.9714,-0.9659,-0.952,-0.9467,-0.9404,-0.9319,-0.9256,-0.9159,-0.9096,-0.897,-0.8926,-0.882,-0.873,-0.8572,-0.8473,-0.8368,-0.834,-0.8328,-0.8323,-0.835,-0.8337,-0.8342,-0.8335,-0.833,-0.8331,-0.8331,-0.8331,0,-0.9703,-0.966,-0.9574,-0.9471,-0.9399,-0.9312,-0.9223,-0.9183,-0.9069,-0.9002,-0.8899,-0.883,-0.8692,-0.8587,-0.8471,-0.8401,-0.8346,-0.8334,-0.8322,-0.8346,-0.8383,-0.8361,-0.8383,-0.8335,-0.8335,-0.8334,-0.8334,-0.8334,-0.9708,-0.9656,-0.955,-0.9456,-0.938,-0.9299,-0.9237,-0.9156,-0.9069,-0.8951,-0.8899,-0.8795,-0.8688,-0.8527,-0.8458,-0.8374,-0.836,-0.8343,-0.8338,-0.8335,-0.834,-0.8399,-0.8352,-0.8352,-0.8352,-0.8352,-0.8352,0,-0.9692,-0.9621,-0.9536,-0.9415,-0.934,-0.9299,-0.9198,-0.9138,-0.9049,-0.8955,-0.8869,-0.875,-0.8648,-0.8542,-0.8433,-0.8386,-0.8359,-0.8361,-0.8362,-0.8347,-0.8359,-0.838,-0.8385,-0.8385,-0.8385,-0.8385,-0.8385,-0.8385,-0.9675,-0.9583,-0.9528,-0.9397,-0.9325,-0.9224,-0.917,-0.9094,-0.9019,-0.8891,-0.8807,-0.874,-0.864,-0.8524,-0.8428,-0.8399,-0.8362,-0.8371,-0.8335,-0.8348,-0.8346,-0.8344,-0.8363,-0.8364,-0.8364,-0.8329,-0.8329,-0.8329]}]]